Regional Weather Roundup
Issued by NWS

Home | Current Version | Previous Version | Graphics & Text | Print | Product List | Glossary On
Versions: 1 2 3 4 5 6 7 8 9 10 11 12 13 14 15 16 17 18 19 20 21 22 23 24 25 26 27 28 29 30 31 32 33 34 35 36 37 38 39 40 41 42 43 44 45 46 47 48 49 50
570
ASUS43 KBIS 190110
RWRND

NORTH DAKOTA REGIONAL WEATHER ROUNDUP
NATIONAL WEATHER SERVICE BISMARCK ND
700 PM CST THU JAN 18 2018

NOTE: "FAIR" INDICATES FEW OR NO CLOUDS BELOW 12,000 FEET WITH NO
SIGNIFICANT WEATHER AND/OR OBSTRUCTIONS TO VISIBILITY.


NDZ001>003-009>011-017-190200-
NORTHWEST NORTH DAKOTA

CITY           SKY/WX    TMP DP  RH WIND       PRES   REMARKS
WILLISTON      CLOUDY    39  29  67 SW14      29.64S
MINOT          CLOUDY    41  29  62 SW18      29.58S
MINOT AFB      CLOUDY    39  29  69 W14       29.56S
$$

NDZ018>021-031>035-040>046-190200-
SOUTHWEST NORTH DAKOTA

CITY           SKY/WX    TMP DP  RH WIND       PRES   REMARKS
BISMARCK       CLOUDY    31  26  82 CALM      29.67F
DICKINSON      CLOUDY    36  29  75 W10       29.65S
GARRISON         N/A     32  27  81 SW6       29.62F
HETTINGER ARPT CLOUDY    39  27  62 SW10      29.71F
$$

NDZ004>008-012>016-024-026-027-054-190200-
NORTHEAST NORTH DAKOTA

CITY           SKY/WX    TMP DP  RH WIND       PRES   REMARKS
GRAND FORKS    MOCLDY    24  21  88 S10       29.64F WCI  14
GRND FRKS AFB  FAIR      26  21  82 S9        29.63F WCI  17
DEVILS LAKE    FAIR      30  24  78 SW12      29.60F
$$

NDZ022-023-025-028>030-036>039-047>053-190200-
SOUTHEAST NORTH DAKOTA

CITY           SKY/WX    TMP DP  RH WIND       PRES   REMARKS
FARGO          FAIR      29  24  82 S10       29.69F WCI  20
JAMESTOWN      CLOUDY    32  25  75 S7        29.64F
$$





USA.gov is the U.S. government's official web portal to all federal, state and local government web resources and services.